Faribault, MN

5:11 PM CST on January 22, 2018 (GMT -0600)
Faribault Municipal

Weather History for KFBL - October, 2011

Change the Weather History Date:

Sunday, October 23, 2011

  Actual Average Record
Temperature  
Mean Temperature 50 °F -  
Max Temperature 62 °F 57 °F 82 °F (1992)
Min Temperature 37 °F 35 °F 21 °F (1981)
Degree Days  
Heating Degree Days 16    
Moisture  
Dew Point 38 °F    
Average Humidity 67    
Maximum Humidity 93    
Minimum Humidity 42    
Precipitation  
Precipitation 0.02 in - - ()
Sea Level Pressure  
Sea Level Pressure 29.88 in    
Wind  
Wind Speed 5 mph (SSW)    
Max Wind Speed 13 mph    
Max Gust Speed 18 mph    
Visibility 10 miles    
Events Rain    
Averages and records for this station are not official NWS values.
T = Trace of Precipitation, MM = Missing Value Source: NWS Daily Summary

Daily Weather History Graph

Daily Weather History Graph

Search for Another Location

Airport or City:

Trip Planner

Search our weather history database for the weather conditions in past years. The results will help you decide how hot, cold, wet, or windy it might be!

Date:

Astronomy

Oct. 23, 2011 Rise Set
Actual Time 7:38 AM CDT 6:16 PM CDT
Civil Twilight 7:08 AM CDT 6:45 PM CDT
Nautical Twilight 6:34 AM CDT 7:19 PM CDT
Astronomical Twilight 6:01 AM CDT 7:53 PM CDT
Moon 3:38 AM CDT (10/23) 4:13 PM CDT (10/23)
Length of Visible Light 11h 37m
Length of Day
10h 38m
Waning Crescent, 14% of the Moon is Illuminated
Oct 23
Waning Crescent
Oct 26
New
Nov 2
First Quarter
Nov 10
Full
Nov 18
Last Quarter

Hourly Weather History & Observations

Time (CDT) Temp. Windchill Dew Point Humidity Pressure Visibility Wind Dir Wind Speed Gust Speed Precip Events Conditions
12:14 AM 42.8 °F 41.1 °F 30.2 °F 61% 29.96 in 10.0 mi South 3.5 mph - N/A   Scattered Clouds
12:33 AM 42.8 °F - 28.4 °F 57% 29.96 in 10.0 mi Calm Calm - N/A   Scattered Clouds
12:54 AM 42.8 °F 41.1 °F 28.4 °F 57% 29.95 in 10.0 mi South 3.5 mph - N/A   Clear
1:13 AM 44.6 °F 43.1 °F 28.4 °F 53% 29.95 in 10.0 mi South 3.5 mph - N/A   Clear
1:34 AM 42.8 °F 39.3 °F 28.4 °F 57% 29.95 in 10.0 mi South 5.8 mph - N/A   Clear
1:54 AM 44.6 °F 42.2 °F 28.4 °F 53% 29.94 in 10.0 mi South 4.6 mph - N/A   Mostly Cloudy
2:14 AM 42.8 °F 40.1 °F 28.4 °F 57% 29.94 in 10.0 mi South 4.6 mph - N/A   Mostly Cloudy
2:34 AM 44.6 °F 40.7 °F 28.4 °F 53% 29.93 in 10.0 mi SSE 6.9 mph - N/A   Mostly Cloudy
2:53 AM 44.6 °F 42.2 °F 28.4 °F 53% 29.94 in 10.0 mi South 4.6 mph - N/A   Overcast
3:14 AM 44.6 °F 41.4 °F 30.2 °F 57% 29.93 in 10.0 mi SSE 5.8 mph - N/A   Overcast
3:34 AM 44.6 °F 40.7 °F 30.2 °F 57% 29.93 in 10.0 mi South 6.9 mph - N/A Rain Rain
3:54 AM 44.6 °F 40.7 °F 30.2 °F 57% 29.92 in 10.0 mi SSE 6.9 mph - N/A   Overcast
4:14 AM 46.4 °F 44.3 °F 30.2 °F 53% 29.91 in 10.0 mi South 4.6 mph - N/A   Overcast
4:34 AM 46.4 °F - 30.2 °F 53% 29.91 in 10.0 mi Calm Calm - N/A   Overcast
4:53 AM 46.4 °F 45.2 °F 33.8 °F 62% 29.91 in 10.0 mi SSW 3.5 mph - N/A   Drizzle
5:14 AM 44.6 °F 39.2 °F 35.6 °F 71% 29.90 in 10.0 mi South 10.4 mph - 0.01 in Rain Rain
5:19 AM 44.6 °F 40.2 °F 35.6 °F 71% 29.90 in 10.0 mi South 8.1 mph - 0.01 in Rain Light Rain
5:34 AM 44.6 °F 42.2 °F 35.6 °F 71% 29.90 in 10.0 mi South 4.6 mph - 0.02 in Rain Light Rain
5:54 AM 44.6 °F 40.7 °F 35.6 °F 71% 29.89 in 10.0 mi SSE 6.9 mph - 0.02 in Rain Light Rain
5:55 AM 44.6 °F 40.2 °F 35.6 °F 71% 29.89 in 10.0 mi SSE 8.1 mph - 0.02 in Rain Light Rain
6:13 AM 44.6 °F 40.7 °F 37.4 °F 76% 29.89 in 10.0 mi South 6.9 mph - N/A   Mostly Cloudy
6:34 AM 44.6 °F 40.2 °F 37.4 °F 76% 29.87 in 10.0 mi SSE 8.1 mph - N/A   Mostly Cloudy
6:54 AM 44.6 °F 40.2 °F 37.4 °F 76% 29.86 in 10.0 mi South 8.1 mph - N/A   Mostly Cloudy
7:14 AM 46.4 °F 42.4 °F 39.2 °F 76% 29.87 in 10.0 mi South 8.1 mph - N/A   Mostly Cloudy
7:34 AM 44.6 °F 42.2 °F 37.4 °F 76% 29.87 in 10.0 mi South 4.6 mph - N/A   Scattered Clouds
7:54 AM 44.6 °F 40.7 °F 39.2 °F 81% 29.87 in 10.0 mi South 6.9 mph - N/A   Clear
8:14 AM 44.6 °F 41.4 °F 39.2 °F 81% 29.87 in 10.0 mi South 5.8 mph - N/A   Clear
8:34 AM 46.4 °F 43.5 °F 39.2 °F 76% 29.87 in 10.0 mi South 5.8 mph - N/A   Clear
9:14 AM 48.2 °F - 42.8 °F 82% 29.86 in 10.0 mi South 5.8 mph - N/A   Clear
9:54 AM 51.8 °F - 42.8 °F 71% 29.86 in 10.0 mi SSW 9.2 mph - N/A   Clear
10:14 AM 51.8 °F - 42.8 °F 71% 29.85 in 10.0 mi SSW 9.2 mph - N/A   Clear
10:34 AM 53.6 °F - 44.6 °F 72% 29.84 in 10.0 mi SSW 8.1 mph - N/A   Clear
10:53 AM 53.6 °F - 44.6 °F 72% 29.84 in 10.0 mi SSW 9.2 mph - N/A   Clear
11:34 AM 55.4 °F - 44.6 °F 67% 29.84 in 10.0 mi SSW 9.2 mph - N/A   Clear
11:54 AM 57.2 °F - 44.6 °F 63% 29.83 in 10.0 mi SSW 10.4 mph - N/A   Clear
12:14 PM 57.2 °F - 42.8 °F 59% 29.82 in 10.0 mi SSW 10.4 mph - N/A   Clear
12:34 PM 57.2 °F - 42.8 °F 59% 29.81 in 10.0 mi South 6.9 mph - N/A   Clear
12:53 PM 57.2 °F - 44.6 °F 63% 29.80 in 10.0 mi SSW 5.8 mph - N/A   Scattered Clouds
1:14 PM 57.2 °F - 44.6 °F 63% 29.80 in 10.0 mi WSW 9.2 mph - N/A   Scattered Clouds
1:34 PM 60.8 °F - 42.8 °F 52% 29.80 in 10.0 mi WSW 6.9 mph - N/A   Scattered Clouds
1:53 PM 60.8 °F - 42.8 °F 52% 29.79 in 10.0 mi WSW 3.5 mph - N/A   Clear
2:14 PM 60.8 °F - 41.0 °F 48% 29.79 in 10.0 mi West 8.1 mph - N/A   Scattered Clouds
2:34 PM 62.6 °F - 41.0 °F 45% 29.79 in 10.0 mi West 8.1 mph - N/A   Scattered Clouds
2:53 PM 62.6 °F - 42.8 °F 48% 29.79 in 10.0 mi WSW 6.9 mph - N/A   Scattered Clouds
3:14 PM 62.6 °F - 39.2 °F 42% 29.79 in 10.0 mi WNW 8.1 mph - N/A   Scattered Clouds
3:34 PM 60.8 °F - 39.2 °F 45% 29.79 in 10.0 mi WNW 5.8 mph - N/A   Mostly Cloudy
3:53 PM 62.6 °F - 39.2 °F 42% 29.79 in 10.0 mi WNW 11.5 mph - N/A   Scattered Clouds
4:14 PM 62.6 °F - 41.0 °F 45% 29.79 in 10.0 mi WNW 8.1 mph - N/A   Scattered Clouds
4:33 PM 60.8 °F - 41.0 °F 48% 29.80 in 10.0 mi NNW 11.5 mph - N/A   Scattered Clouds
4:54 PM 57.2 °F - 42.8 °F 59% 29.81 in 10.0 mi NW 11.5 mph 18.4 mph N/A   Scattered Clouds
5:14 PM 57.2 °F - 42.8 °F 59% 29.82 in 10.0 mi NW 11.5 mph 17.3 mph N/A   Scattered Clouds
5:33 PM 55.4 °F - 42.8 °F 63% 29.84 in 10.0 mi NW 12.7 mph 18.4 mph N/A   Clear
5:54 PM 53.6 °F - 42.8 °F 67% 29.85 in 10.0 mi NW 8.1 mph - N/A   Clear
7:14 PM 48.2 °F - 41.0 °F 76% 29.89 in 10.0 mi WNW 3.5 mph - N/A   Clear
7:34 PM 48.2 °F - 41.0 °F 76% 29.90 in 10.0 mi NNW 3.5 mph - N/A   Clear
7:54 PM 46.4 °F - 39.2 °F 76% 29.91 in 10.0 mi Calm Calm - N/A   Clear
8:13 PM 44.6 °F - 39.2 °F 81% - 10.0 mi Calm Calm - N/A   Clear
8:34 PM 44.6 °F - 39.2 °F 81% 29.92 in 10.0 mi Calm Calm - N/A   Clear
8:54 PM 42.8 °F 41.1 °F 39.2 °F 87% 29.93 in 10.0 mi WNW 3.5 mph - N/A   Clear
9:14 PM 41.0 °F 39.0 °F 37.4 °F 87% 29.93 in 10.0 mi WNW 3.5 mph - N/A   Clear
9:34 PM 42.8 °F 41.1 °F 39.2 °F 87% 29.94 in 10.0 mi WNW 3.5 mph - N/A   Clear
9:54 PM 41.0 °F - 37.4 °F 87% 29.95 in 10.0 mi Calm Calm - N/A   Clear
10:34 PM 39.2 °F - 37.4 °F 93% 29.95 in 10.0 mi Calm Calm - N/A   Clear
10:53 PM 39.2 °F - 37.4 °F 93% 29.95 in 10.0 mi Calm Calm - N/A   Clear
11:14 PM 37.4 °F - 35.6 °F 93% 29.95 in 10.0 mi Calm Calm - N/A   Clear
11:34 PM 37.4 °F - 33.8 °F 87% 29.96 in 10.0 mi Calm Calm - N/A   Clear
11:54 PM 37.4 °F - 33.8 °F 87% 29.95 in 1.5 mi Calm Calm - N/A   Mist